Altus AFB, OK

11:49 AM CDT on April 29, 2017 (GMT -0500)
Altus Air Force Base

Weather History for KLTS - August, 2013

Change the Weather History Date:

Wednesday, August 7, 2013

  Actual Average Record
Temperature  
Mean Temperature 84 °F -  
Max Temperature 98 °F 94 °F 109 °F (2003)
Min Temperature 71 °F 70 °F 62 °F (1997)
Cooling Degree Days 20    
Growing Degree Days 34 (Base 50)    
Moisture  
Dew Point 66 °F    
Average Humidity 56    
Maximum Humidity 88    
Minimum Humidity 32    
Precipitation  
Precipitation 0.00 in - - ()
Sea Level Pressure  
Sea Level Pressure 29.82 in    
Wind  
Wind Speed 12 mph (NNE)    
Max Wind Speed 33 mph    
Max Gust Speed 51 mph    
Visibility 9 miles    
Events Rain , Thunderstorm    
Averages and records for this station are not official NWS values.
T = Trace of Precipitation, MM = Missing Value Source: NWS Daily Summary

Daily Weather History Graph

Daily Weather History Graph

Search for Another Location

Airport or City:

Trip Planner

Search our weather history database for the weather conditions in past years. The results will help you decide how hot, cold, wet, or windy it might be!

Date:

Astronomy

Aug. 07, 2013 Rise Set
Actual Time 6:51 AM CDT 8:33 PM CDT
Civil Twilight 6:24 AM CDT 9:00 PM CDT
Nautical Twilight 5:51 AM CDT 9:33 PM CDT
Astronomical Twilight 5:17 AM CDT 10:07 PM CDT
Moon 7:37 AM CDT (8/7) 8:47 PM CDT (8/7)
Length of Visible Light 14h 35m
Length of Day
13h 41m
New Moon, 1% of the Moon is Illuminated
Aug 7
New Moon
Aug 14
First Quarter
Aug 20
Full
Aug 28
Last Quarter
Sep 5
New

Hourly Weather History & Observations

Time (CDT) Temp. Heat Index Dew Point Humidity Pressure Visibility Wind Dir Wind Speed Gust Speed Precip Events Conditions
12:58 AM 88.5 °F 88.1 °F 60.3 °F 38% 29.76 in 10.0 mi SSE 16.1 mph - N/A   Clear
1:58 AM 86.5 °F 87.0 °F 62.2 °F 44% 29.75 in 10.0 mi SSE 11.5 mph - N/A   Clear
2:58 AM 83.3 °F 84.4 °F 63.7 °F 51% 29.75 in 10.0 mi South 6.9 mph - N/A   Clear
3:58 AM 84.4 °F 85.4 °F 63.5 °F 49% 29.77 in 10.0 mi SE 2.3 mph - N/A   Clear
4:58 AM 79.9 °F - 63.3 °F 57% 29.77 in 10.0 mi NE 8.1 mph - N/A   Scattered Clouds
5:58 AM 78.3 °F - 63.5 °F 60% 29.76 in 10.0 mi NNE 11.5 mph - N/A   Clear
6:58 AM 78.6 °F - 63.9 °F 60% 29.78 in 10.0 mi NNE 13.8 mph - N/A   Overcast
7:58 AM 78.3 °F - 64.4 °F 62% 29.80 in 10.0 mi North 10.4 mph - N/A   Mostly Cloudy
8:58 AM 81.3 °F 83.0 °F 64.6 °F 57% 29.81 in 10.0 mi NE 6.9 mph - N/A   Mostly Cloudy
9:58 AM 87.3 °F 89.2 °F 65.1 °F 48% 29.79 in 10.0 mi ESE 8.1 mph - N/A   Partly Cloudy
10:58 AM 91.8 °F 93.0 °F 63.7 °F 39% 29.81 in 10.0 mi East 5.8 mph - N/A   Mostly Cloudy
11:17 AM 93.2 °F 94.9 °F 64.4 °F 38% 29.89 in 10.0 mi North 8.1 mph - N/A   Mostly Cloudy
11:27 AM 91.4 °F 93.2 °F 64.4 °F 41% 29.89 in 10.0 mi North 6.9 mph - N/A Rain Light Rain
11:41 AM 89.6 °F 92.2 °F 66.2 °F 46% 29.89 in 10.0 mi North 9.2 mph - N/A   Overcast
11:51 AM 89.6 °F 93.4 °F 68.0 °F 49% 29.88 in 10.0 mi NNE 12.7 mph 17.3 mph N/A Rain Light Rain
11:58 AM 88.2 °F 91.3 °F 67.6 °F 50% 29.83 in 10.0 mi NNE 10.4 mph - 0.00 in Rain Light Rain
12:04 PM 87.8 °F 90.4 °F 66.2 °F 49% 29.88 in 10.0 mi North 12.7 mph - N/A   Mostly Cloudy
12:58 PM 90.3 °F 92.2 °F 65.3 °F 43% 29.83 in 10.0 mi North 8.1 mph - 0.00 in   Mostly Cloudy
1:58 PM 91.4 °F 93.2 °F 64.4 °F 41% 29.82 in 10.0 mi NNE 5.8 mph - N/A   Partly Cloudy
2:17 PM 91.4 °F 93.2 °F 64.4 °F 41% 29.88 in 10.0 mi NE 6.9 mph - N/A   Light Drizzle
2:40 PM 89.6 °F 94.7 °F 69.8 °F 52% 29.87 in 10.0 mi NE 9.2 mph - N/A   Mostly Cloudy
2:55 PM 91.9 °F 94.5 °F 66.0 °F 42% 29.81 in 10.0 mi NNE 6.9 mph - 0.00 in   Mostly Cloudy
2:56 PM 91.4 °F 94.0 °F 66.2 °F 43% 29.87 in 10.0 mi NNE 9.2 mph - N/A   Mostly Cloudy
3:58 PM 97.2 °F 99.1 °F 63.5 °F 33% 29.79 in 10.0 mi NE 5.8 mph 17.3 mph N/A   Partly Cloudy
4:58 PM 97.0 °F 99.3 °F 64.0 °F 34% 29.78 in 10.0 mi NNE 12.7 mph - N/A   Scattered Clouds
5:58 PM 98.4 °F 100.7 °F 63.5 °F 32% 29.75 in 10.0 mi NNE 10.4 mph - N/A   Clear
6:58 PM 97.5 °F 100.3 °F 64.8 °F 34% 29.73 in 10.0 mi NE 15.0 mph - N/A   Clear
7:58 PM 93.6 °F 96.4 °F 66.0 °F 40% 29.73 in 10.0 mi ENE 15.0 mph - N/A   Clear
8:58 PM 89.4 °F 92.7 °F 67.6 °F 48% 29.75 in 10.0 mi NE 10.4 mph - N/A   Clear
9:58 PM 87.3 °F 91.2 °F 68.9 °F 54% 29.76 in 10.0 mi NE 10.4 mph - N/A   Partly Cloudy
10:58 PM 85.3 °F 91.1 °F 71.8 °F 64% 29.81 in 10.0 mi SW 33.4 mph 38.0 mph N/A Thunderstorm Overcast
11:05 PM 86.0 °F 91.8 °F 71.6 °F 62% 29.87 in 10.0 mi SW 31.1 mph 50.6 mph N/A Thunderstorm Thunderstorm
11:16 PM 77.0 °F - 66.2 °F 69% 29.88 in 10.0 mi SW 26.5 mph 47.2 mph N/A Thunderstorm Thunderstorm
11:25 PM 73.4 °F - 69.8 °F 88% 29.90 in 9.0 mi SW 20.7 mph 35.7 mph N/A Rain , Thunderstorm Heavy Thunderstorms and Rain
11:30 PM 73.4 °F - 69.8 °F 88% 29.90 in 3.0 mi SW 20.7 mph 31.1 mph N/A Rain , Thunderstorm Light Thunderstorms and Rain
11:36 PM 71.6 °F - 68.0 °F 88% 29.89 in 1.2 mi WSW 16.1 mph 31.1 mph N/A Rain , Thunderstorm Light Thunderstorms and Rain
11:41 PM 73.4 °F - 68.0 °F 83% 29.88 in 1.8 mi West 12.7 mph 21.9 mph N/A Rain , Thunderstorm Light Thunderstorms and Rain
11:45 PM 73.4 °F - 68.0 °F 83% 29.87 in 5.0 mi West 9.2 mph 21.9 mph N/A Thunderstorm Unknown
11:46 PM 73.4 °F - 68.0 °F 83% 29.87 in 7.0 mi West 10.4 mph 21.9 mph N/A Rain , Thunderstorm Light Thunderstorms and Rain
11:51 PM 73.4 °F - 68.0 °F 83% 29.86 in 10.0 mi WNW 11.5 mph - N/A Rain , Thunderstorm Light Thunderstorms and Rain
11:53 PM 73.4 °F - 68.0 °F 83% 29.86 in 10.0 mi WNW 12.7 mph - N/A Thunderstorm Thunderstorm
11:56 PM 73.4 °F - 69.8 °F 88% 29.85 in 10.0 mi NW 16.1 mph - N/A Rain , Thunderstorm Light Thunderstorms and Rain
11:58 PM 73.6 °F - 69.3 °F 86% 29.81 in 10.0 mi NW 13.8 mph - N/A Rain , Thunderstorm Light Thunderstorms and Rain